[[{"header":{"parameterUnit":"m.s-1","parameterCategory":1,"la1":30.2991,"la2":30.254,"lo1":-89.0895,"lo2":-89.0444,"dy":0.0017,"dx":0.0017,"nx":28,"ny":28,"refTime":"2023-10-20T21:00:00:Z","depth":0,"parameterNumber":2,"parameterNumberName":"U-component_of_WINDS"},"data":[0,0,0,0,0,0,0,0,0,0,0,0,0,0,0,0,0,0,0,0,0,0,0,0,0,0,0,0,0,0,0,0,0,0,0,0,0,0,0,0,0,0,0,0,0,0,0,0,0,0,0,0,0,0,0,0,0,0,2.7247,2.7248,0,2.7359,2.7361,2.7362,2.7334,2.7332,2.7329,2.7327,2.7445,2.745,2.7455,0,0,0,0,0,0,0,0,0,0,0,0,0,2.7012,2.7017,2.7247,2.7248,2.725,2.7359,2.7361,2.7362,2.7334,2.7331,2.7329,2.7326,2.7443,2.745,2.7456,0,0,0,0,0,0,0,0,0,0,0,0,0,2.7118,2.7018,2.7246,2.7249,2.725,2.7359,2.7361,2.7363,2.7335,2.7331,2.7328,2.7325,2.7441,2.7449,2.7457,2.7571,0,0,2.748,2.7484,0,0,0,0,0,0,0,0,2.7112,2.7127,2.7247,2.7249,2.725,2.7329,2.7321,2.7433,2.7336,2.7303,2.7327,2.7323,2.7409,2.742,2.7448,2.7576,2.7582,2.7481,2.7486,2.7489,2.7491,0,0,0,0,0,0,0,2.7105,2.7122,2.7291,2.7249,2.7251,2.7246,2.7257,2.7342,2.7373,2.7305,2.7303,2.7317,2.741,2.7441,2.7451,2.7583,2.7481,2.7488,2.7493,2.7496,2.7814,2.7818,0,0,0,0,0,0,2.7096,2.7116,2.7288,2.7295,2.7172,2.7253,2.7265,2.7307,2.7372,2.7379,2.732,2.7315,2.7429,2.7442,2.7455,2.7594,2.7489,2.7496,2.7501,2.7811,2.7815,2.7819,0,0,0,0,0,0,2.7091,2.7111,2.7283,2.7205,2.7226,2.726,2.7307,2.7311,2.7342,2.7383,2.7389,2.7345,2.7427,2.7444,2.7543,2.7597,2.75,2.7507,2.7806,2.7812,2.7817,2.7872,0,0,0,0,0,0,2.7084,2.711,2.7152,2.7206,2.7231,2.7368,2.7311,2.7316,2.7355,2.735,2.7409,2.7415,2.7426,2.7531,2.755,2.7606,2.7513,2.7801,2.7809,2.7815,2.7866,2.7879,2.7891,0,0,0,0,0,2.7076,2.7163,2.7154,2.7175,2.7284,2.7371,2.7385,2.7394,2.736,2.7403,2.7431,2.7413,2.7589,2.7542,2.7563,2.7622,2.7798,2.7807,2.7815,2.786,2.7877,2.789,0,0,0,0,0,0,2.7115,2.717,2.7161,2.7268,2.7315,2.7366,2.7421,2.7411,2.747,2.7463,2.7473,2.7487,2.7588,2.7615,2.7562,2.7738,2.7689,2.7702,2.7716,2.7732,2.7744,2.7735,2.752,0,0,0,0,0,2.7136,2.72,2.7246,2.7336,2.736,2.7387,2.7425,2.7429,2.7478,2.7498,2.7532,2.7582,2.7648,2.7692,2.7755,2.7871,2.7884,2.7922,2.7935,2.7945,2.7955,2.8021,2.8038,2.7847,2.7847,2.7847,0,0,2.7179,2.7218,2.7258,2.7345,2.7382,2.745,2.7404,2.7477,2.7528,2.7509,2.7604,2.7632,2.7689,2.7797,2.7846,2.7822,2.8012,2.7956,2.7963,2.7969,2.8031,2.8049,2.8065,2.7853,2.7852,2.7851,0,0,2.7294,2.7329,2.7409,2.7447,2.7504,2.7522,2.7541,2.7595,2.7612,2.7708,2.7696,2.7758,2.7872,2.7913,2.7949,2.8084,2.807,2.8104,2.8169,2.8232,2.8247,2.8261,2.8309,2.8326,2.8115,2.8116,2.8116,0,2.7341,2.7442,2.7451,2.7527,2.7566,2.7553,2.7634,2.7672,2.7747,2.7775,2.7748,2.7892,2.7929,2.8047,2.8081,2.811,2.8134,2.8096,2.8244,2.8258,2.827,2.8317,2.8335,2.8119,2.8119,2.8118,2.8118,0,2.7498,2.7569,2.7627,2.7699,2.7745,2.7824,2.7846,2.7893,2.7894,2.7915,2.8015,2.8059,2.8132,2.8161,2.8162,2.8281,2.8265,2.8241,2.8191,2.8292,2.8336,2.8354,2.8125,2.8123,2.8122,2.8121,0,0,2.7636,2.7715,2.7736,2.777,2.7833,2.7889,2.7968,2.8039,2.8079,2.8133,2.82,2.8299,2.8278,2.8319,2.8326,2.8382,2.8487,2.8351,2.8353,2.8375,2.8621,2.8638,2.8658,2.8479,2.8483,2.8486,2.8617,0,2.7756,2.7894,2.7906,2.8031,2.8097,2.8088,2.8157,2.8205,2.8228,2.8289,2.8316,2.8385,2.8352,2.8377,2.8432,2.8462,2.8536,2.8453,2.8543,2.8546,2.8527,2.8681,2.8698,2.8819,2.8634,2.8637,2.8639,0,2.7913,2.7971,2.8102,2.8159,2.8187,2.8249,2.8317,2.8375,2.843,2.8444,2.8491,2.8491,2.8575,2.8524,2.8641,2.8584,2.8622,2.8643,2.8648,2.8656,2.8597,2.8692,2.8858,2.8876,2.8666,2.8664,2.8662,0,2.8001,2.8113,2.8206,2.8235,2.8303,2.8347,2.8378,2.8429,2.8472,2.8533,2.8561,2.8631,2.8668,2.8723,2.8743,2.8704,2.886,2.881,2.8874,2.8873,2.8905,2.8902,2.9078,2.8932,2.8931,2.8931,2.8931,0,2.8133,2.8213,2.8246,2.8303,2.8394,2.841,2.85,2.8529,2.8576,2.864,2.8637,2.8697,2.872,2.8785,2.8802,2.8896,2.8914,2.8928,2.8931,2.8927,2.8925,2.8951,2.8943,2.8936,2.8935,2.8934,2.8933,0,2.8245,2.827,2.8371,2.8428,2.8445,2.8509,2.8559,2.8615,2.8639,2.8721,2.8741,2.8778,2.8855,2.8881,2.8974,2.8985,2.9096,2.9092,2.9076,2.9077,2.9139,2.9132,2.9336,2.9364,2.92,2.9202,2.9203,0,2.8326,2.8388,2.8452,2.8495,2.8527,2.8595,2.864,2.8659,2.8705,2.8774,2.8823,2.8899,2.8961,2.9084,2.9121,2.9193,2.9191,2.9258,2.9201,2.9196,2.9191,2.9187,2.9193,2.9267,2.9269,2.927,2.9271,0,2.8468,2.8478,2.8541,2.861,2.8663,2.8718,2.8772,2.8807,2.8834,2.8887,2.8965,2.9013,2.9109,2.9185,2.926,2.9293,2.9288,2.9289,2.9308,2.9304,2.9292,2.9299,2.9104,2.9284,2.9283,2.9282,2.9281,2.928,2.8567,2.8622,2.8676,2.8748,2.879,2.8841,2.8897,2.8929,2.8994,2.9073,2.9081,2.9166,2.9223,2.9322,2.9359,2.9427,2.9408,2.9435,2.9442,2.9448,2.9452,2.9283,2.9441,2.9441,2.944,2.944,2.944,0,2.8708,2.8743,2.8809,2.8884,2.8941,2.8932,2.8991,2.904,2.9114,2.9167,2.9228,2.932,2.9395,2.9439,2.9514,2.956,2.956,2.9579,2.9575,2.9583,2.9465,2.9441,2.9578,2.9578,2.9578,2.9578,2.9578,2.9578,2.8788,2.8881,2.8899,2.9014,2.9049,2.9131,2.9167,2.9214,2.9257,2.9359,2.9421,2.9449,2.95,2.9579,2.9648,2.9659,2.9687,2.9708,2.9718,2.9606,2.9591,2.9578,2.9555,2.9715,2.9715,2.9831,2.9832,2.9832]},{"header":{"parameterUnit":"m.s-1","parameterCategory":1,"la1":30.2991,"la2":30.254,"lo1":-89.0895,"lo2":-89.0444,"dy":0.0017,"dx":0.0017,"nx":28,"ny":28,"refTime":"2023-10-20T21:00:00:Z","depth":0,"parameterNumber":3,"parameterNumberName":"V-component_of_WINDS"},"data":[0,0,0,0,0,0,0,0,0,0,0,0,0,0,0,0,0,0,0,0,0,0,0,0,0,0,0,0,0,0,0,0,0,0,0,0,0,0,0,0,0,0,0,0,0,0,0,0,0,0,0,0,0,0,0,0,0,0,2.0926,2.0927,0,2.1,2.1001,2.1002,2.098,2.0979,2.0977,2.0976,2.1051,2.1054,2.1057,0,0,0,0,0,0,0,0,0,0,0,0,0,2.0766,2.0769,2.0926,2.0927,2.0928,2.1,2.1001,2.1002,2.0981,2.0979,2.0977,2.0975,2.1049,2.1053,2.1057,0,0,0,0,0,0,0,0,0,0,0,0,0,2.0837,2.077,2.0926,2.0926,2.0927,2.1,2.1001,2.1002,2.0981,2.0979,2.0977,2.0974,2.1048,2.1053,2.1058,2.1135,0,0,2.1074,2.1076,0,0,0,0,0,0,0,0,2.0833,2.0843,2.0925,2.0926,2.0927,2.0979,2.0972,2.1047,2.0982,2.096,2.0976,2.0973,2.1028,2.1035,2.1054,2.1138,2.1141,2.1074,2.1077,2.1079,2.1081,0,0,0,0,0,0,0,2.0828,2.084,2.0955,2.0926,2.0928,2.0922,2.093,2.0986,2.1006,2.0962,2.0961,2.097,2.1028,2.1049,2.1055,2.1143,2.1074,2.1078,2.1082,2.1084,2.1293,2.1295,0,0,0,0,0,0,2.0823,2.0836,2.0953,2.0957,2.0874,2.0927,2.0935,2.0964,2.1006,2.101,2.0972,2.0969,2.1041,2.1049,2.1058,2.115,2.1079,2.1084,2.1087,2.1291,2.1294,2.1296,0,0,0,0,0,0,2.082,2.0834,2.095,2.0896,2.0911,2.0932,2.0965,2.0967,2.0987,2.1013,2.1016,2.0989,2.104,2.1051,2.1116,2.1152,2.1086,2.1091,2.1288,2.1291,2.1295,2.1335,0,0,0,0,0,0,2.0815,2.0832,2.0862,2.0897,2.0914,2.1007,2.0967,2.097,2.0996,2.0993,2.103,2.1034,2.1039,2.1108,2.1121,2.1158,2.1095,2.1284,2.1289,2.1294,2.133,2.1339,2.1347,0,0,0,0,0,2.0809,2.087,2.0864,2.0878,2.0951,2.1009,2.1019,2.1024,2.0999,2.1029,2.1045,2.1032,2.1146,2.1115,2.1129,2.1168,2.1282,2.1288,2.1293,2.1326,2.1337,2.1347,0,0,0,0,0,0,2.0838,2.0875,2.0868,2.0942,2.0973,2.1005,2.1043,2.1035,2.1073,2.1068,2.1073,2.1081,2.1148,2.1165,2.1129,2.1244,2.1211,2.1219,2.1231,2.1242,2.125,2.1244,2.1099,0,0,0,0,0,2.0853,2.0898,2.0927,2.0989,2.1005,2.1022,2.1047,2.1048,2.108,2.1093,2.1114,2.1145,2.1188,2.1216,2.1256,2.1333,2.134,2.1366,2.1375,2.1382,2.1389,2.143,2.1442,2.1315,2.1315,2.1315,0,0,2.0884,2.091,2.0938,2.0996,2.102,2.1065,2.1033,2.1082,2.1116,2.11,2.1163,2.118,2.1214,2.1285,2.1318,2.1301,2.1426,2.1389,2.1394,2.1398,2.1437,2.1449,2.146,2.1319,2.1318,2.1317,0,0,2.0965,2.0989,2.1043,2.1068,2.1105,2.1115,2.1128,2.1163,2.1173,2.1236,2.1225,2.1265,2.1339,2.1364,2.1387,2.1477,2.1466,2.149,2.1534,2.1574,2.1584,2.1592,2.1624,2.1635,2.1497,2.1497,2.1497,0,2.0999,2.1067,2.1072,2.1123,2.1148,2.1137,2.1192,2.1216,2.1264,2.1281,2.1263,2.1355,2.1378,2.1454,2.1476,2.1495,2.1509,2.1485,2.1582,2.1591,2.1599,2.1629,2.1641,2.15,2.15,2.1499,2.1499,0,2.1107,2.1154,2.1194,2.1241,2.1271,2.1324,2.1336,2.1366,2.1365,2.1377,2.1441,2.1469,2.1514,2.1533,2.1532,2.1609,2.1598,2.1581,2.1547,2.1614,2.1642,2.1653,2.1504,2.1503,2.1502,2.1501,0,0,2.1206,2.1256,2.127,2.1291,2.1331,2.1368,2.142,2.1465,2.149,2.1524,2.1567,2.163,2.1614,2.164,2.1642,2.1677,2.1746,2.1655,2.1656,2.167,2.1831,2.1843,2.1856,2.1739,2.1741,2.1743,2.1828,0,2.1289,2.138,2.1387,2.1469,2.1513,2.1503,2.1548,2.1577,2.1591,2.1629,2.1644,2.1688,2.1664,2.1679,2.1714,2.173,2.1778,2.1724,2.1778,2.178,2.1769,2.1871,2.1884,2.1963,2.1839,2.1841,2.1842,0,2.1397,2.1435,2.1522,2.1556,2.1574,2.1615,2.1657,2.1694,2.1727,2.1734,2.1763,2.176,2.1812,2.1777,2.185,2.1813,2.1836,2.1847,2.185,2.1855,2.1815,2.1878,2.1988,2.2,2.186,2.1858,2.1857,0,2.146,2.1532,2.1594,2.1612,2.1653,2.1682,2.17,2.1731,2.1758,2.1794,2.1812,2.1854,2.1877,2.1909,2.1917,2.1891,2.1989,2.1955,2.1996,2.1996,2.2016,2.2015,2.2131,2.2033,2.2032,2.2032,2.2032,0,2.1551,2.1605,2.1622,2.166,2.1719,2.1726,2.1785,2.1801,2.1829,2.1869,2.1863,2.1901,2.191,2.195,2.1957,2.2015,2.2026,2.2032,2.2033,2.2032,2.2031,2.2047,2.2041,2.2035,2.2035,2.2034,2.2033,0,2.1631,2.1645,2.1711,2.1745,2.1755,2.1797,2.1826,2.1862,2.1874,2.1925,2.1938,2.1957,2.2003,2.2015,2.207,2.2075,2.2144,2.214,2.2133,2.2132,2.2172,2.2168,2.2302,2.2319,2.221,2.2211,2.2212,0,2.1687,2.1728,2.1767,2.1794,2.1814,2.1857,2.1884,2.1893,2.1921,2.1962,2.1993,2.2039,2.2075,2.215,2.2168,2.221,2.2207,2.2251,2.2213,2.2211,2.2207,2.2204,2.2207,2.2258,2.2259,2.226,2.2261,0,2.1786,2.1791,2.1831,2.1874,2.1907,2.1941,2.1973,2.1996,2.2008,2.2041,2.2088,2.2117,2.2174,2.2219,2.2261,2.2279,2.2272,2.2273,2.2284,2.2283,2.2277,2.228,2.2151,2.2269,2.2268,2.2268,2.2267,2.2267,2.1855,2.1891,2.1924,2.1969,2.1994,2.2025,2.206,2.2078,2.2118,2.2164,2.2167,2.2218,2.225,2.2306,2.2327,2.2367,2.2354,2.2371,2.2375,2.2378,2.2381,2.2271,2.2375,2.2375,2.2374,2.2374,2.2374,0,2.1953,2.1974,2.2015,2.2061,2.2096,2.2087,2.2123,2.2153,2.2198,2.2229,2.2265,2.232,2.2363,2.2386,2.2429,2.2457,2.2455,2.2468,2.2465,2.2469,2.2391,2.2377,2.2469,2.2469,2.2469,2.2469,2.2469,2.2469,2.2008,2.2068,2.2077,2.2149,2.217,2.2221,2.2242,2.227,2.2294,2.2355,2.2392,2.2407,2.2434,2.2479,2.2519,2.2524,2.254,2.2555,2.2558,2.2485,2.2475,2.2466,2.2452,2.2558,2.2559,2.2633,2.2634,2.2634]}]]